Voltar ao catálogo

OPS 4682 DEB

AtivoPO
NORAD 38421·DEBRIS·🇺🇸 United States

Lançado Apr 3, 1965 de Vandenberg Space Force Base

Loading…

Próximas Passagens (próximas 24 horas)

TLE

AtualizadoSource: Space-Track

Época: Sep 13, 2026, 00:45 UTC

1 38421U 65027EA  26256.03182306 -.00000175  00000-0 -52567-3 0  9995
2 38421  90.2677  11.1816 0034832  60.8802 299.5805 13.10007218680121

Acompanhe OPS 4682 DEB em tempo real com AllMySat

Download on the App Store